Satellite: ISS (ZARYA)
Catalog number: 25544
Epoch time:      101232.43953704
Element set:     368
Inclination:       51.6407 deg
RA of node:       124.8879 deg
Eccentricity:    0.0008373
Arg of perigee:    17.6594 deg
Mean anomaly:     334.1969 deg
Mean motion:   15.56905359 rev/day
Decay rate:    1.2692E-004 rev/day^2
Epoch rev:           15710
Checksum:              325

Satellite: SO-35
Catalog number: 25636
Epoch time:      101231.95392105
Element set:     545
Inclination:       96.4844 deg
RA of node:       338.5136 deg
Eccentricity:    0.0149048
Arg of perigee:   267.2515 deg
Mean anomaly:      91.1608 deg
Mean motion:   14.41951099 rev/day
Decay rate:    2.3200E-006 rev/day^2
Epoch rev:           13086
Checksum:              310

Satellite: UO-36
Catalog number: 25693
Epoch time:      101232.48507545
Element set:     109
Inclination:       64.5572 deg
RA of node:       241.6964 deg
Eccentricity:    0.0042113
Arg of perigee:   239.6029 deg
Mean anomaly:     120.0908 deg
Mean motion:   14.73952392 rev/day
Decay rate:    5.0200E-006 rev/day^2
Epoch rev:           12556
Checksum:              397

Satellite: WO-39
Catalog number: 26061
Epoch time:      101232.18920468
Element set:     331
Inclination:      100.1912 deg
RA of node:       177.6396 deg
Eccentricity:    0.0036686
Arg of perigee:    24.6701 deg
Mean anomaly:     335.6226 deg
Mean motion:   14.35760069 rev/day
Decay rate:    7.7100E-006 rev/day^2
Epoch rev:            8191
Checksum:              299

Satellite: OO-38
Catalog number: 26063
Epoch time:      101231.87598300
Element set:     300
Inclination:      100.1947 deg
RA of node:       176.6188 deg
Eccentricity:    0.0037451
Arg of perigee:    27.3364 deg
Mean anomaly:     332.9775 deg
Mean motion:   14.34714471 rev/day
Decay rate:    2.8500E-006 rev/day^2
Epoch rev:            8183
Checksum:              304

Satellite: AO-37
Catalog number: 26065
Epoch time:      101231.90292522
Element set:     300
Inclination:      100.1944 deg
RA of node:       176.6921 deg
Eccentricity:    0.0038323
Arg of perigee:    28.7242 deg
Mean anomaly:     331.6037 deg
Mean motion:   14.34669911 rev/day
Decay rate:    3.2200E-006 rev/day^2
Epoch rev:            8182
Checksum:              273

Satellite: SO-41
Catalog number: 26545
Epoch time:      101231.86958341
Element set:     163
Inclination:       64.5597 deg
RA of node:       271.5653 deg
Eccentricity:    0.0041786
Arg of perigee:   326.7257 deg
Mean anomaly:      33.1242 deg
Mean motion:   14.75653543 rev/day
Decay rate:    1.1479E-005 rev/day^2
Epoch rev:            4830
Checksum:              320

Satellite: SO-42
Catalog number: 26549
Epoch time:      101232.20920273
Element set:     242
Inclination:       64.5511 deg
RA of node:       271.9840 deg
Eccentricity:    0.0042677
Arg of perigee:   332.9881 deg
Mean anomaly:      26.9000 deg
Mean motion:   14.74712927 rev/day
Decay rate:    8.2099E-006 rev/day^2
Epoch rev:            4832
Checksum:              307

Satellite: AO-40
Catalog number: 26609
Epoch time:      101230.14688386
Element set:     127
Inclination:        5.6504 deg
RA of node:       163.6149 deg
Eccentricity:    0.7982337
Arg of perigee:   315.8347 deg
Mean anomaly:       3.3772 deg
Mean motion:    1.25600818 rev/day
Decay rate:   -1.9300E-006 rev/day^2
Epoch rev:             367
Checksum:              381


Satellite: METEOR 1-1
Catalog number: 03835
Epoch time:      101232.53672735
Element set:     806
Inclination:       81.1704 deg
RA of node:       239.9303 deg
Eccentricity:    0.0015478
Arg of perigee:    40.1855 deg
Mean anomaly:     320.0514 deg
Mean motion:   15.14389991 rev/day
Decay rate:    5.6280E-005 rev/day^2
Epoch rev:           75821
Checksum:              302


Satellite: METEOR 1-2
Catalog number: 04119
Epoch time:      101231.76973039
Element set:     66
Inclination:       81.1768 deg
RA of node:        24.6223 deg
Eccentricity:    0.0017093
Arg of perigee:   295.1962 deg
Mean anomaly:      64.7502 deg
Mean motion:   15.34741223 rev/day
Decay rate:    1.1908E-004 rev/day^2
Epoch rev:           66426
Checksum:              297



Satellite: METEOR 1-4
Catalog number: 04393
Epoch time:      101231.48655666
Element set:     945
Inclination:       81.1895 deg
RA of node:        17.9782 deg
Eccentricity:    0.0020713
Arg of perigee:   245.9169 deg
Mean anomaly:     114.0150 deg
Mean motion:   15.21849352 rev/day
Decay rate:    1.1895E-004 rev/day^2
Epoch rev:           67055
Checksum:              322


Satellite: METEOR 1-7
Catalog number: 04849
Epoch time:      101231.72607394
Element set:     565
Inclination:       81.2445 deg
RA of node:        95.9100 deg
Eccentricity:    0.0009486
Arg of perigee:    12.0081 deg
Mean anomaly:     348.1265 deg
Mean motion:   15.21391231 rev/day
Decay rate:    5.4619E-005 rev/day^2
Epoch rev:           66599
Checksum:              315


Satellite: METEOR 1-9 R/B
Catalog number: 05328
Epoch time:      101232.30633905
Element set:     139
Inclination:       81.1602 deg
RA of node:       149.2832 deg
Eccentricity:    0.0007800
Arg of perigee:   232.3630 deg
Mean anomaly:     127.5518 deg
Mean motion:   15.83270447 rev/day
Decay rate:    1.2263E-003 rev/day^2
Epoch rev:           64842
Checksum:              280


Satellite: METEOR 1-28 R/
Catalog number: 10114
Epoch time:      101231.73070669
Element set:     878
Inclination:       97.7938 deg
RA of node:       112.2987 deg
Eccentricity:    0.0020002
Arg of perigee:     8.3207 deg
Mean anomaly:     351.8345 deg
Mean motion:   15.01137538 rev/day
Decay rate:    1.7980E-005 rev/day^2
Epoch rev:           31144
Checksum:              298


Satellite: OKEAN 2 R/B
Catalog number: 20511
Epoch time:      101231.81157987
Element set:     568
Inclination:       82.5239 deg
RA of node:       286.6423 deg
Eccentricity:    0.0017908
Arg of perigee:   317.2072 deg
Mean anomaly:      42.7732 deg
Mean motion:   14.76867024 rev/day
Decay rate:    4.3700E-006 rev/day^2
Epoch rev:           61781
Checksum:              311

Satellite: OKEAN 3
Catalog number: 21397
Epoch time:      101231.95377544
Element set:     739
Inclination:       82.5224 deg
RA of node:       186.4264 deg
Eccentricity:    0.0020786
Arg of perigee:   344.3312 deg
Mean anomaly:      15.7256 deg
Mean motion:   14.81138522 rev/day
Decay rate:    1.6859E-005 rev/day^2
Epoch rev:           55047
Checksum:              316

Satellite: RESURS O1 R/B
Catalog number: 23343
Epoch time:      101232.51704859
Element set:     646
Inclination:       97.7391 deg
RA of node:       246.9677 deg
Eccentricity:    0.0006162
Arg of perigee:   273.0926 deg
Mean anomaly:      86.9577 deg
Mean motion:   14.72578451 rev/day
Decay rate:    6.4099E-006 rev/day^2
Epoch rev:           36475
Checksum:              355

Satellite: ISS (ZARYA)
Catalog number: 25544
Epoch time:      101232.43953704
Element set:     368
Inclination:       51.6407 deg
RA of node:       124.8879 deg
Eccentricity:    0.0008373
Arg of perigee:    17.6594 deg
Mean anomaly:     334.1969 deg
Mean motion:   15.56905359 rev/day
Decay rate:    1.2692E-004 rev/day^2
Epoch rev:           15710
Checksum:              325

Satellite: OKEAN O
Catalog number: 25860
Epoch time:      101232.18848668
Element set:     193
Inclination:       97.9440 deg
RA of node:       285.3114 deg
Eccentricity:    0.0001783
Arg of perigee:    49.5922 deg
Mean anomaly:     310.5440 deg
Mean motion:   14.71080946 rev/day
Decay rate:    4.4899E-006 rev/day^2
Epoch rev:           11241
Checksum:              313


Satellite: METEOR 3-5
Catalog number: 21655
Epoch time:      101231.91245672
Element set:     415
Inclination:       82.5520 deg
RA of node:        65.7387 deg
Eccentricity:    0.0014049
Arg of perigee:   123.5916 deg
Mean anomaly:     236.6549 deg
Mean motion:   13.16933934 rev/day
Decay rate:    5.1000E-007 rev/day^2
Epoch rev:           48139
Checksum:              307


Satellite: METEOR 2-21
Catalog number: 22782
Epoch time:      101231.90729705
Element set:     54
Inclination:       82.5494 deg
RA of node:       289.2389 deg
Eccentricity:    0.0023730
Arg of perigee:    82.3446 deg
Mean anomaly:     278.0422 deg
Mean motion:   13.83366642 rev/day
Decay rate:    7.6999E-007 rev/day^2
Epoch rev:           40236
Checksum:              334

Satellite: METEOSAT 6
Catalog number: 22912
Epoch time:      101231.86965858
Element set:     905
Inclination:        1.3908 deg
RA of node:        82.5295 deg
Eccentricity:    0.0000608
Arg of perigee:   213.6014 deg
Mean anomaly:     336.1762 deg
Mean motion:    1.00269782 rev/day
Decay rate:   -9.5999E-007 rev/day^2
Epoch rev:            2680
Checksum:              319


Satellite: RESURS O1-N4
Catalog number: 25394
Epoch time:      101232.39568496
Element set:     692
Inclination:       98.6826 deg
RA of node:       309.0083 deg
Eccentricity:    0.0000731
Arg of perigee:   264.4740 deg
Mean anomaly:      95.6359 deg
Mean motion:   14.23163921 rev/day
Decay rate:    1.7099E-006 rev/day^2
Epoch rev:           16168
Checksum:              337

Satellite: NOAA 9
Catalog number: 15427
Epoch time:      101231.57733358
Element set:     20
Inclination:       98.7389 deg
RA of node:       302.7619 deg
Eccentricity:    0.0014708
Arg of perigee:   348.5024 deg
Mean anomaly:      11.5819 deg
Mean motion:   14.14557757 rev/day
Decay rate:   -5.0000E-008 rev/day^2
Epoch rev:           86065
Checksum:              314

